Regional Weather Roundup
Issued by NWS

Home | Current Version | Previous Version | Text Only | Print | Product List | Glossary On
Versions: 1 2 3 4 5 6 7 8 9 10 11 12 13 14 15 16 17 18 19 20 21 22 23 24 25 26 27 28 29 30 31 32 33 34 35 36 37 38 39 40 41 42 43 44 45 46 47 48 49 50
000
ASUS42 KTBW 231810
RWRFL
FLORIDA REGIONAL WEATHER ROUNDUP
NATIONAL WEATHER SERVICE TAMPA BAY RUSKIN FL
200 PM EDT WED JUL 23 2014

NOTE: "FAIR" INDICATES FEW OR NO CLOUDS BELOW 12,000 FEET WITH NO
SIGNIFICANT WEATHER AND/OR OBSTRUCTIONS TO VISIBILITY.


FLZ001>010-012>015-112-114-115-231900-
PANHANDLE FLORIDA

CITY           SKY/WX    TMP DP  RH WIND       PRES   REMARKS
PENSACOLA      MOSUNNY   83  70  64 S9        30.07R
PENSACOLA NAS  PTSUNNY   83  74  74 S9        30.07R
MILTON NAS     PTSUNNY   87  70  56 VRB5      30.07S
CRESTVIEW      CLOUDY    87  71  58 S7        30.08S
DUKE FIELD     MOSUNNY   88  76  68 S9        30.07S HX  99
VALPARAISO     PTSUNNY   86  75  69 S13       30.07S HX  96
MARY ESTHER    MOSUNNY   86  71  61 S12       30.07R
PANAMA CITY    FAIR      87  73  62 S13       30.07S
TYNDALL AFB    MOSUNNY   85  76  74 SW9       30.08F HX  95
APALACHICOLA   SUNNY     88  75  65 S9        30.08R HX  97

STATION/POSITION SKY/WX   TEMP    WIND        PRES    WAVE   SWELL
                          AIR SEA DIR/SP/G            HT/PER HT/PER
                          (F)     (DEG/KT/KT) (MB)    (FT/S) (FT/S)
30.1N   87.6W              77 83  220/ 14/ 17 1019.1R   1/ 5
29.2N   88.2W              81 85  240/ 10/ 12 1018.7R
28.8N   86.0W              82 85  200/  8/  8 1018.6F   1
PANAMA CITY BEAC           82 84  180/  9/  9 1018.5S
CAPE SAN BLAS    NOT AVBL
TOWER C                    82     200/  7/  8 1018.5F
28.5N   84.5W              83 86  240/  4/  6 1018.7F   1/ 8

$$
FLZ011-016>038-118-127-128-134-139-239-231900-
NORTH FLORIDA

CITY           SKY/WX    TMP DP  RH WIND       PRES   REMARKS
MARIANNA       MOSUNNY   89  72  56 CALM      30.05F HX  96
TALLAHASSEE    PTSUNNY   91  68  46 SW6       30.06F HX  95
PERRY          SUNNY     88  68  51 CALM      30.07F
CROSS CITY       N/A     92  72  51 W7        30.06F HX  99
GAINESVILLE    MOSUNNY   90  71  53 VRB5      30.07F HX  96
MAYPORT NAS    PTSUNNY   88  75  65 E9        30.07S HX  97
JACKSONVILLE   PTSUNNY   91  70  49 NW3       30.05F HX  96
JAX NAS        MOSUNNY   92  72  51 S7        30.07F HX  99
JAX CRAIG      PTSUNNY   89  77  67 E8        30.07S HX 101
JAX CECIL      PTSUNNY   90  73  58 CALM      30.06F HX  98
FERNANDINA BEA FAIR      88  75  66 E8        30.05F HX  97
ST AUGUSTINE   MOSUNNY   90  76  63 E9        30.08S HX 101

STATION/POSITION SKY/WX   TEMP    WIND        PRES    WAVE   SWELL
                          AIR SEA DIR/SP/G            HT/PER HT/PER
                          (F)     (DEG/KT/KT) (MB)    (FT/S) (FT/S)
SHELL POINT                84     160/  7/  9   N/A
KEATON BEACH               83     240/  6/  8 1018.7F
CEDAR KEY                  85     250/  4/  6 1019.4R
FERNANDINA                 86 85  110/  6/ 10 1017.5F
30.7N   81.3W                 87                N/A     2/ 7
MAYPORT                    85 85  100/  8/ 11   N/A
31.4N   80.9W              83 88  120/  2/  4 1018.4F   2/ 7   2/ 7
ST AUGUSTINE               82     110/  8/  9 1019.1F

$$
FLZ040-043>046-052-053-057-058-063-144-231900-
INTERIOR CENTRAL FLORIDA

CITY           SKY/WX    TMP DP  RH WIND       PRES   REMARKS
OCALA          MOSUNNY   91  68  46 SW8       30.08F HX  95
LEESBURG       SUNNY     90  74  59 SE5       30.08F HX  99
SANFORD        PTSUNNY   90  74  59 NE3       30.07F HX  99
ORLANDO EXEC   PTSUNNY   89  73  59 W9        30.07F HX  97
ORLANDO INTL   PTSUNNY   90  73  57 W5        30.07F HX  98
KISSIMMEE      PTSUNNY   90  75  62 S5        30.08F HX 100
WINTER HAVEN   PTSUNNY   91  71  51 MISG      30.09S HX  97
LAKELAND       MOSUNNY   91  68  46 CALM      30.08F HX  95
BARTOW         PTSUNNY   88  70  55 NW5       30.09S
OKEECHOBEE     CLOUDY    86  73  66 MISG      30.09S

$$
FLZ041-047-054-059-064-141-147-231900-
EAST CENTRAL FLORIDA

CITY           SKY/WX    TMP DP  RH WIND       PRES   REMARKS
ORMOND BEACH   MOSUNNY   86  75  70 E9        30.08S HX  95
DAYTONA BEACH  PTSUNNY   88  76  67 VRB6      30.08S HX  99
DELAND         PTCLDY    90  72  55 CALM      30.08F HX  96
NEW SMYRNA BEA MOSUNNY   88  75  66 E8        30.09S HX  97
JFK SPACE CTR  PTSUNNY   89  78  68 VRB5      30.07F HX 103
TITUSVILLE     MOSUNNY   88  73  62 E7        30.08F HX  96
CAPE CANAVERAL PTSUNNY   88  74  62 SW6       30.07F HX  96
PATRICK AFB    PTSUNNY   85  78  79 SE10      30.08F HX  96
MELBOURNE      CLOUDY    85  77  77 SE9       30.08F HX  95
VERO BEACH     CLOUDY    81  79  94 SE7       30.09S
FT PIERCE      CLOUDY    83  77  82 VRB7      30.09S
STUART         PTSUNNY   84  75  74 SE9       30.10F

STATION/POSITION SKY/WX   TEMP    WIND        PRES    WAVE   SWELL
                          AIR SEA DIR/SP/G            HT/PER HT/PER
                          (F)     (DEG/KT/KT) (MB)    (FT/S) (FT/S)
28.5N   80.2W              82 84  210/  2/  4 1019.5S
28.9N   78.5W              80 83  250/ 12/ 17 1020.1R   4/ 5   2/ 6
TRIDENT PIER               88 87  120/  3/  5 1018.1F
28.4N   80.5W                 86                N/A     2/ 8
27.6N   80.2W                 84                N/A     2/ 6

$$
FLZ050-056-061-142-242-148-248-149-249-151-251-155-255-
160-260-231900-
WEST CENTRAL FLORIDA

CITY           SKY/WX    TMP DP  RH WIND       PRES   REMARKS
CRYSTAL RIVER  FAIR      90  72  55 W9        30.07F HX  96
INVERNESS      HVY RAIN  81  72  74 CALM      30.09R
BROOKSVILLE    PTSUNNY   86  73  65 S10       30.09S
ZEPHYRHILLS    FAIR      91  68  46 CALM      30.08F HX  95
CLEARWATER     PTSUNNY   90  74  59 NE5       30.07F HX  99
TAMPA INTL     MOSUNNY   88  72  58 W8        30.08F
TAMPA EXEC     MOSUNNY   91  72  52 SW3       30.07F HX  98
PLANT CITY     MOSUNNY   93  66  40 SW6       30.09F HX  96
MACDILL AFB    MOSUNNY   91  79  68 S8        30.08F HX 108
ST PETERSBURG  MOSUNNY   88  71  57 SW8       30.06S
SARASOTA       SUNNY     90  75  61 W9        30.07F HX 100
VENICE         FAIR      86  75  70 W8        30.08F HX  95

STATION/POSITION SKY/WX   TEMP    WIND        PRES    WAVE   SWELL
                          AIR SEA DIR/SP/G            HT/PER HT/PER
                          (F)     (DEG/KT/KT) (MB)    (FT/S) (FT/S)
CEDAR KEY                  85     250/  4/  6 1019.4R
28.5N   84.5W              83 86  240/  4/  6 1018.7F   1/ 8
27.3N   84.3W                 88                N/A     1/ 5
CLEARWATER BEACH           85 89  270/  6/  8 1018.5F
MIDDLE TAMPA BAY           85     260/  7/  8 1019.0F
VENICE                     85 89  260/  7/  8 1018.0F

$$
FLZ066-069-070-075>078-162-262-165-265-231900-
SOUTHWEST FLORIDA AND KEYS

CITY           SKY/WX    TMP DP  RH WIND       PRES   REMARKS
PUNTA GORDA    MOSUNNY   92  74  55 SE5       30.08F HX 101
FT MYERS       MOSUNNY   89  73  59 VRB3      30.06F HX  97
SOUTHWEST INTL MOSUNNY   88  73  61 CALM      30.07F HX  95
NAPLES         PTSUNNY   90  77  65 SW8       30.07F HX 103
MARATHON       LGT RAIN  81  79  94 W6        30.08F
KEY WEST NAS   CLOUDY    90  79  70 SE10      30.07F HX 106
KEY WEST INTL  CLOUDY    89  76  65 S7        30.07F HX 100

STATION/POSITION SKY/WX   TEMP    WIND        PRES    WAVE   SWELL
                          AIR SEA DIR/SP/G            HT/PER HT/PER
                          (F)     (DEG/KT/KT) (MB)    (FT/S) (FT/S)
VENICE                     85 89  260/  7/  8 1018.0F
NAPLES                     85 92  250/  7/  9 1018.7F
DRY TORTUGAS               86     110/  3/  3 1018.5F
NW FL BAY                  83     210/ 14/ 18 1019.0R
SAND KEY                   85     110/  4/  5 1018.4F
SOMBRERO KEY               79     330/  4/  4 1019.1F
LONG KEY                   86 88  150/ 11/ 12 1019.3F
MOLASSES REEF              85 87  170/  9/ 11 1018.6S

$$
FLZ067-068-071>074-168-172>174-231900-
SOUTHEAST FLORIDA

CITY           SKY/WX    TMP DP  RH WIND       PRES   REMARKS
W PALM BEACH   PTSUNNY   84  76  76 S13G21    30.09F
FT LAUDER-EXEC PTSUNNY   82  78  88 E5        30.09F
FT LAUDERDALE  PTSUNNY   85  82  91 N3        30.08F HX 102
POMPANO BEACH  RAIN     N/A N/A N/A S3        30.12R
PEMBROKE PINES PTSUNNY   86  76  71 SE13      30.10S THUNDER HX  96
OPA LOCKA      TSTM      81  76  84 SW6       30.10R
MIAMI          LGT RAIN  85  78  80 S10       30.08F HX  96
WEST KENDALL   CLOUDY    86  77  74 VRB5      30.08F HX  97
HOMESTEAD      LGT RAIN  88  77  70 S9        30.08S HX 100

STATION/POSITION SKY/WX   TEMP    WIND        PRES    WAVE   SWELL
                          AIR SEA DIR/SP/G            HT/PER HT/PER
                          (F)     (DEG/KT/KT) (MB)    (FT/S) (FT/S)
PORT EVERGLADES            81     340/  8/ 10 1019.0
VIRGINIA KEY               86 87  170/ 11/ 13   N/A
LAKE WORTH                 82 84              1018.9F
FOWEY ROCKS                87 87  150/ 12/ 13 1018.9S
SETTLEMENT POINT           85     160/ 12/ 14 1019.7F

$$




USA.gov is the U.S. government's official web portal to all federal, state and local government web resources and services.